Weather History for Cheboygan, MI

Change the Weather History Date:

Thursday, December 22, 2011

  Actual Average (KPLN) Record (KPLN)
Temperature  
Mean Temperature 28 °F -  
Max Temperature 33 °F 29 °F 52 °F (1957)
Min Temperature 22 °F 14 °F -21 °F (1960)
Degree Days  
Heating Degree Days 38    
Moisture  
Dew Point 24 °F    
Average Humidity 79    
Maximum Humidity 96    
Minimum Humidity 63    
Precipitation  
Precipitation 0.00 in - - ()
Sea Level Pressure  
Sea Level Pressure 30.04 in    
Wind  
Wind Speed 8 mph (WNW)    
Max Wind Speed 17 mph    
Max Gust Speed 28 mph    
Visibility 9 miles    
Events Snow    
Averages and records for this station are not official NWS values.
T = Trace of Precipitation, MM = Missing Value Source: NWS Daily Summary

Daily Weather History Graph

Daily Weather History Graph

Search for Another Location

Airport:

Trip Planner

Search our weather history database for the weather conditions in past years. The results will help you decide how hot, cold, wet, or windy it might be!

Date:

Astronomy

Dec. 22, 2011 Rise Set
Actual Time 8:16 AM EST 4:57 PM EST
Civil Twilight 7:41 AM EST 5:31 PM EST
Nautical Twilight 7:03 AM EST 6:09 PM EST
Astronomical Twilight 6:27 AM EST 6:45 PM EST
Moon 5:57 AM EST (12/22) 3:06 PM EST (12/22)
Length of Visible Light 9h 49m
Length of Day
8h 41m
Waning Crescent, 6% of the Moon is Illuminated
Dec 22
Waning Crescent
Dec 24
New
Jan 1
First Quarter
Jan 9
Full
Jan 16
Last Quarter

Hourly Weather History & Observations

Time (EST) Temp. Windchill Dew Point Humidity Pressure Visibility Wind Dir Wind Speed Gust Speed Precip Events Conditions
12:15 AM 32.4 °F 26.9 °F 27.0 °F 80% 29.83 in 10.0 mi WSW 5.8 mph - N/A   Overcast
12:34 AM 32.9 °F 26.7 °F 27.1 °F 79% 29.83 in 10.0 mi WSW 6.9 mph - N/A   Overcast
12:54 AM 32.9 °F 27.5 °F 27.5 °F 81% 29.85 in 7.0 mi West 5.8 mph - N/A Snow Light Snow
1:15 AM 32.4 °F 26.9 °F 28.9 °F 87% 29.85 in 4.0 mi WSW 5.8 mph - N/A Snow Light Snow
1:34 AM 32.2 °F 26.7 °F 29.3 °F 89% 29.86 in 7.0 mi WSW 5.8 mph - N/A Snow Light Snow
1:54 AM 32.4 °F 26.9 °F 30.6 °F 93% 29.87 in 5.0 mi WSW 5.8 mph - N/A Snow Light Snow
2:14 AM 32.5 °F 28.1 °F 31.1 °F 94% 29.88 in 7.0 mi WSW 4.6 mph - N/A Snow Light Snow
2:34 AM 32.9 °F 26.7 °F 31.6 °F 95% 29.88 in 7.0 mi West 6.9 mph - N/A Snow Light Snow
2:55 AM 32.9 °F 27.5 °F 31.8 °F 96% 29.89 in 7.0 mi West 5.8 mph - N/A Snow Light Snow
3:14 AM 33.1 °F 27.7 °F 32.0 °F 96% 29.90 in 10.0 mi West 5.8 mph - N/A   Overcast
3:34 AM 33.1 °F 28.7 °F 32.0 °F 96% 29.91 in 5.0 mi WSW 4.6 mph - N/A Snow Light Snow
3:55 AM 33.1 °F 28.7 °F 32.0 °F 96% 29.92 in 7.0 mi WSW 4.6 mph - N/A Snow Light Snow
4:14 AM 33.4 °F 29.1 °F 32.0 °F 94% 29.91 in 5.0 mi West 4.6 mph - N/A Snow Light Snow
4:34 AM 33.1 °F 28.7 °F 32.0 °F 96% 29.92 in 5.0 mi WSW 4.6 mph - N/A Snow Light Snow
4:55 AM 33.1 °F 28.7 °F 32.2 °F 96% 29.92 in 7.0 mi WSW 4.6 mph - N/A   Overcast
5:14 AM 33.1 °F 28.7 °F 32.2 °F 96% 29.92 in 7.0 mi WSW 4.6 mph - N/A   Overcast
5:34 AM 33.1 °F 27.7 °F 32.2 °F 96% 29.93 in 7.0 mi West 5.8 mph - N/A   Overcast
5:55 AM 33.3 °F 27.9 °F 32.2 °F 96% 29.94 in 7.0 mi West 5.8 mph - N/A   Overcast
6:14 AM 33.1 °F 27.7 °F 32.0 °F 96% 29.95 in 7.0 mi WSW 5.8 mph - N/A   Overcast
6:35 AM 33.3 °F 28.9 °F 32.0 °F 95% 29.96 in 10.0 mi WSW 4.6 mph - N/A   Overcast
6:54 AM 32.9 °F 28.5 °F 32.0 °F 96% 29.96 in 10.0 mi WSW 4.6 mph - N/A   Overcast
7:14 AM 33.3 °F 28.9 °F 32.0 °F 95% 29.97 in 10.0 mi West 4.6 mph - N/A   Overcast
7:34 AM 33.6 °F 29.4 °F 32.0 °F 94% 29.98 in 10.0 mi West 4.6 mph - N/A   Overcast
7:54 AM 33.8 °F 28.6 °F 32.0 °F 93% 29.99 in 10.0 mi West 5.8 mph - N/A   Overcast
8:14 AM 33.4 °F 28.1 °F 32.0 °F 94% 30.00 in 10.0 mi West 5.8 mph - N/A   Overcast
8:35 AM 33.8 °F 28.6 °F 32.0 °F 93% 30.02 in 10.0 mi West 5.8 mph - N/A   Overcast
8:54 AM 33.8 °F 25.8 °F 32.0 °F 93% 30.02 in 10.0 mi WNW 10.4 mph - N/A   Overcast
9:15 AM 33.4 °F 23.9 °F 30.7 °F 90% 30.03 in 10.0 mi NNW 13.8 mph 21.9 mph N/A   Overcast
9:34 AM 32.9 °F 22.4 °F 29.5 °F 87% 30.04 in 10.0 mi NNW 16.1 mph 24.2 mph N/A   Overcast
9:54 AM 32.2 °F 22.3 °F 26.8 °F 80% 30.05 in 10.0 mi NNW 13.8 mph 27.6 mph N/A   Overcast
10:14 AM 32.0 °F 20.8 °F 26.6 °F 80% 30.05 in 10.0 mi NW 17.3 mph 23.0 mph N/A   Overcast
11:14 AM 32.0 °F 22.5 °F 23.9 °F 72% 30.10 in 10.0 mi NW 12.7 mph 18.4 mph N/A   Overcast
11:34 AM 32.0 °F 24.2 °F 22.6 °F 68% 30.10 in 10.0 mi NW 9.2 mph - N/A   Overcast
11:54 AM 32.0 °F 21.2 °F 22.8 °F 69% 30.08 in 10.0 mi NW 16.1 mph - N/A   Overcast
12:14 PM 32.0 °F 22.5 °F 23.0 °F 69% 30.08 in 10.0 mi NNW 12.7 mph 20.7 mph N/A   Overcast
12:34 PM 31.6 °F 21.2 °F 22.5 °F 69% 30.08 in 10.0 mi NW 15.0 mph 19.6 mph N/A   Overcast
12:55 PM 31.1 °F 23.1 °F 21.9 °F 69% 30.08 in 10.0 mi NW 9.2 mph - N/A   Overcast
1:14 PM 30.7 °F 22.0 °F 21.7 °F 69% 30.10 in 10.0 mi NNW 10.4 mph 16.1 mph N/A   Overcast
1:35 PM 30.6 °F 21.8 °F 20.8 °F 67% 30.11 in 10.0 mi NNW 10.4 mph - N/A   Overcast
1:54 PM 30.6 °F 22.4 °F 20.1 °F 65% 30.12 in 10.0 mi NNW 9.2 mph - N/A   Overcast
2:14 PM 30.0 °F 21.1 °F 19.4 °F 65% 30.12 in 10.0 mi NNW 10.4 mph - N/A   Overcast
2:34 PM 29.8 °F 20.9 °F 19.2 °F 65% 30.12 in 10.0 mi NNW 10.4 mph 17.3 mph N/A   Overcast
2:54 PM 28.4 °F 18.0 °F 18.9 °F 67% 30.12 in 10.0 mi NNW 12.7 mph 18.4 mph N/A   Overcast
3:15 PM 27.9 °F 16.8 °F 17.1 °F 64% 30.12 in 10.0 mi NNW 13.8 mph 19.6 mph N/A   Overcast
3:34 PM 27.5 °F 15.9 °F 17.4 °F 66% 30.12 in 10.0 mi NNW 15.0 mph - N/A   Overcast
4:34 PM 26.1 °F 14.5 °F 15.4 °F 64% 30.14 in 10.0 mi NNW 13.8 mph 20.7 mph N/A   Overcast
4:54 PM 25.5 °F 14.3 °F 14.7 °F 64% 30.15 in 10.0 mi NNW 12.7 mph 18.4 mph N/A   Overcast
5:14 PM 25.0 °F 14.8 °F 14.2 °F 64% 30.17 in 10.0 mi NW 10.4 mph 18.4 mph N/A   Overcast
5:35 PM 24.8 °F 12.9 °F 14.0 °F 64% 30.18 in 10.0 mi NW 13.8 mph 19.6 mph N/A   Overcast
5:54 PM 24.3 °F 15.4 °F 13.3 °F 63% 30.18 in 10.0 mi NNW 8.1 mph - N/A   Overcast
6:14 PM 23.5 °F 12.4 °F 13.3 °F 65% 30.18 in 10.0 mi North 11.5 mph - N/A   Mostly Cloudy
6:34 PM 23.9 °F 13.5 °F 13.3 °F 64% - 10.0 mi NNW 10.4 mph 18.4 mph N/A   Overcast
6:54 PM 23.5 °F 12.4 °F 13.6 °F 66% 30.19 in 10.0 mi NW 11.5 mph 18.4 mph N/A   Overcast
7:15 PM 23.5 °F 11.3 °F 13.8 °F 66% 30.20 in 10.0 mi NW 13.8 mph 17.3 mph N/A   Overcast
7:34 PM 23.0 °F 12.4 °F 13.6 °F 67% 30.21 in 10.0 mi NW 10.4 mph - N/A   Mostly Cloudy
7:54 PM 23.9 °F 11.2 °F 12.9 °F 63% 30.21 in 10.0 mi NNW 15.0 mph 23.0 mph N/A   Mostly Cloudy
8:14 PM 23.5 °F 12.4 °F 13.5 °F 65% 30.21 in 10.0 mi NNW 11.5 mph 19.6 mph N/A   Overcast
8:34 PM 22.8 °F 12.9 °F 13.1 °F 66% 30.21 in 10.0 mi North 9.2 mph - N/A   Mostly Cloudy
8:55 PM 23.4 °F 12.2 °F 13.8 °F 67% 30.21 in 10.0 mi NNE 11.5 mph - N/A   Mostly Cloudy
9:14 PM 22.6 °F 14.3 °F 13.1 °F 67% 30.21 in 10.0 mi North 6.9 mph - N/A   Scattered Clouds
9:34 PM 23.2 °F 13.3 °F 14.7 °F 70% 30.20 in 10.0 mi NNW 9.2 mph - N/A   Mostly Cloudy
9:55 PM 22.8 °F 15.5 °F 14.7 °F 71% 30.19 in 10.0 mi North 5.8 mph - N/A   Mostly Cloudy
10:14 PM 21.9 °F 14.5 °F 14.9 °F 74% 30.19 in 10.0 mi North 5.8 mph - N/A   Scattered Clouds
10:34 PM 23.7 °F 17.8 °F 15.4 °F 71% 30.19 in 10.0 mi North 4.6 mph - N/A   Overcast
10:55 PM 23.9 °F 13.5 °F 16.5 °F 73% 30.20 in 10.0 mi NNE 10.4 mph - N/A   Overcast
11:14 PM 23.0 °F 13.1 °F 16.7 °F 77% 30.20 in 10.0 mi NNE 9.2 mph - N/A   Overcast
11:34 PM 22.6 °F 11.9 °F 16.2 °F 76% 30.20 in 10.0 mi NE 10.4 mph - N/A   Overcast
11:54 PM 21.9 °F 13.4 °F 15.4 °F 76% 30.20 in 10.0 mi NE 6.9 mph - N/A   Overcast